Printer-friendly version

IAU Minor Planet Center

Minor Planet Center

MPEC 2004-B04 : 2004 AE6

The following Minor Planet Electronic Circular may be linked-to from your own Web pages, but must not otherwise be redistributed electronically.


Read MPEC 2004-B03 Read MPEC 2004-B05


M.P.E.C. 2004-B04                                Issued 2004 Jan. 17, 12:04 UT

     The Minor Planet Electronic Circulars contain information on unusual
         minor planets and routine data on comets.  They are published
   on behalf of Commission 20 of the International Astronomical Union by the
          Minor Planet Center, Smithsonian Astrophysical Observatory,
                          Cambridge, MA 02138, U.S.A.

         Supported in part by the Steven and Michele Kirsch Foundation
             Prepared using the Tamkin Foundation Computer Network

                              MPC@CFA.HARVARD.EDU
          URL http://cfa-www.harvard.edu/iau/mpc.html  ISSN 1523-6714

                                   2004 AE6

Observations:
     K04A06E* C2004 01 15.36227 08 01 52.78 +23 00 09.3          21.5 V EB004691
     K04A06E  C2004 01 15.39163 08 01 50.00 +22 59 12.0          21.9 V EB004691
     K04A06E  C2004 01 15.41803 08 01 47.60 +22 58 20.7          21.5 V EB004691
     K04A06E  C2004 01 16.29662 08 00 42.90 +22 29 43.6          21.4 V EB004691
     K04A06E  C2004 01 16.29976 08 00 42.56 +22 29 36.7          21.0 V EB004691
     K04A06E  C2004 01 16.30302 08 00 42.27 +22 29 30.8          21.3 V EB004691
     K04A06E  C2004 01 17.36473 07 59 14.51 +21 52 22.0                 EB004926
     K04A06E  C2004 01 17.36699 07 59 14.16 +21 52 19.0          21.1 R EB004926

Observer details:
691 Steward Observatory, Kitt Peak.  Observer A. E. Gleason.  0.9-m f/3
    reflector + CCD.
926 Tenagra II Observatory.  Observers P. R. Holvorcem, M. Schwartz.  0.81-m
    f/7 Ritchey-Chretien + CCD.

Orbital elements:
2004 AE6
Epoch 2004 Jan. 16.0 TT = JDT 2453020.5                 MPC
M 323.68021              (2000.0)            P               Q
n   0.54617746     Peri.  250.91433     -0.98192617     +0.15948966
a   1.4822230      Node   298.15083     -0.09836976     -0.89004189
e   0.3740089      Incl.    6.63671     -0.16169228     -0.42706964
P   1.80           H   24.7           G   0.15
From 8 observations 2004 Jan. 15-17.

Ephemeris:
2004 AE6                 a,e,i = 1.48, 0.37, 7                   q = 0.9279
Date    TT    R. A. (2000) Decl.     Delta      r     Elong.  Phase     V
2004 01 16    08 01.09   +22 39.8    0.170    1.153   176.7     2.9    21.5
2004 01 17    07 59.76   +22 05.6    0.164    1.147   178.0     1.7    21.3
2004 01 18    07 58.35   +21 29.0    0.158    1.142   179.2     0.7    21.1
2004 01 19    07 56.84   +20 49.6    0.153    1.137   179.0     0.9    21.0
2004 01 20    07 55.23   +20 07.3    0.147    1.131   177.6     2.1    21.1
2004 01 21    07 53.53   +19 21.8    0.142    1.126   176.1     3.4    21.1
2004 01 22    07 51.73   +18 32.7    0.137    1.121   174.6     4.7    21.0
2004 01 23    07 49.82   +17 39.9    0.132    1.115   173.0     6.2    21.0
2004 01 24    07 47.81   +16 43.0    0.127    1.110   171.4     7.6    21.0
2004 01 25    07 45.68   +15 41.6    0.122    1.105   169.7     9.2    21.0
2004 01 26    07 43.44   +14 35.3    0.118    1.100   167.9    10.8    20.9
2004 01 27    07 41.08   +13 23.6    0.113    1.095   166.1    12.5    20.9
2004 01 28    07 38.59   +12 06.2    0.108    1.089   164.1    14.3    20.9
2004 01 29    07 35.96   +10 42.4    0.104    1.084   162.1    16.2    20.8
2004 01 30    07 33.19   +09 11.7    0.100    1.079   160.0    18.2    20.8
2004 01 31    07 30.26   +07 33.4    0.096    1.074   157.8    20.2    20.8
2004 02 01    07 27.17   +05 47.0    0.092    1.070   155.5    22.4    20.7
2004 02 02    07 23.88   +03 51.6    0.088    1.065   153.1    24.8    20.7
2004 02 03    07 20.40   +01 46.7    0.084    1.060   150.5    27.2    20.7
2004 02 04    07 16.68   -00 28.5    0.081    1.055   147.8    29.8    20.7
2004 02 05    07 12.72   -02 54.7    0.078    1.050   144.9    32.6    20.6
2004 02 06    07 08.48   -05 32.6    0.075    1.046   141.9    35.6    20.6
2004 02 07    07 03.92   -08 22.5    0.072    1.041   138.7    38.7    20.6
2004 02 08    06 59.01   -11 24.9    0.069    1.037   135.3    42.0    20.6
2004 02 09    06 53.69   -14 39.7    0.067    1.032   131.8    45.5    20.6
2004 02 10    06 47.90   -18 06.5    0.065    1.028   128.0    49.1    20.7
2004 02 11    06 41.58   -21 44.6    0.063    1.023   124.1    53.0    20.7
2004 02 12    06 34.64   -25 32.5    0.061    1.019   120.1    56.9    20.7
2004 02 13    06 26.99   -29 28.3    0.060    1.015   115.9    61.0    20.8
2004 02 14    06 18.52   -33 29.4    0.059    1.011   111.7    65.2    20.9
2004 02 15    06 09.08   -37 32.6    0.059    1.007   107.4    69.4    21.0
2004 02 16    05 58.51   -41 34.6    0.059    1.003   103.2    73.5    21.1
2004 02 17    05 46.64   -45 31.5    0.059    0.999    99.0    77.6    21.3
2004 02 18    05 33.24   -49 19.8    0.060    0.995    95.0    81.6    21.4
2004 02 19    05 18.09   -52 55.7    0.061    0.991    91.1    85.4    21.6
2004 02 20    05 00.95   -56 16.1    0.062    0.988    87.5    88.9    21.8
2004 02 21    04 41.58   -59 18.0    0.063    0.984    84.1    92.3    21.9
2004 02 22    04 19.81   -61 58.8    0.065    0.981    80.9    95.4    22.1
2004 02 23    03 55.61   -64 16.7    0.067    0.977    78.0    98.2    22.3
2004 02 24    03 29.11   -66 10.0    0.069    0.974    75.3   100.7    22.5
2004 02 25    03 00.76   -67 38.3    0.072    0.971    72.9   103.0    22.7

Timothy B. Spahr             (C) Copyright 2004 MPC           M.P.E.C. 2004-B04

Read MPEC 2004-B03 Read MPEC 2004-B05


Our Web policy. Index to the CBAT/MPC/ICQ pages.


Valid HTML 4.01!